Time,TemperatureF,DewpointF,PressureIn,WindDirection,WindDirectionDegrees,WindSpeedMPH,WindSpeedGustMPH,Humidity,HourlyPrecipIn,Conditions,Clouds,dailyrainin,SolarRadiationWatts/m^2,SoftwareType,DateUTC
2013-10-07 00:00:00,59.0,13.0,-100.00,WNW,294,9.0,14.0,16,0.00,,,-99.99,0.000000,,2013-10-07 07:00:00,
2013-10-07 00:42:00,59.0,13.0,-100.00,WNW,294,9.0,14.0,16,0.00,,,-99.99,0.000000,,2013-10-07 07:42:00,
2013-10-07 00:52:00,59.0,13.0,-100.00,WNW,294,9.0,14.0,16,0.00,,,-99.99,0.000000,,2013-10-07 07:52:00,
2013-10-07 01:00:00,58.0,13.0,-100.00,WNW,286,9.0,14.0,17,0.00,,,-99.99,0.000000,,2013-10-07 08:00:00,
2013-10-07 01:42:00,58.0,13.0,-100.00,WNW,286,9.0,14.0,17,0.00,,,-99.99,0.000000,,2013-10-07 08:42:00,
2013-10-07 01:52:00,58.0,13.0,-100.00,WNW,286,9.0,14.0,17,0.00,,,-99.99,0.000000,,2013-10-07 08:52:00,
2013-10-07 02:00:00,57.0,11.0,-100.00,WNW,290,7.0,15.0,16,0.00,,,0.00,0.000000,,2013-10-07 09:00:00,
2013-10-07 02:43:00,57.0,11.0,-100.00,WNW,290,7.0,15.0,16,0.00,,,0.00,0.000000,,2013-10-07 09:43:00,
2013-10-07 02:53:00,57.0,11.0,-100.00,WNW,290,7.0,15.0,16,0.00,,,0.00,0.000000,,2013-10-07 09:53:00,
2013-10-07 03:00:00,57.0,10.0,-100.00,WNW,294,9.0,15.0,15,0.00,,,0.00,0.000000,,2013-10-07 10:00:00,
2013-10-07 03:23:00,57.0,10.0,-100.00,WNW,294,9.0,15.0,15,0.00,,,0.00,0.000000,,2013-10-07 10:23:00,
2013-10-07 03:33:00,57.0,10.0,-100.00,WNW,294,9.0,15.0,15,0.00,,,0.00,0.000000,,2013-10-07 10:33:00,
2013-10-07 03:43:00,57.0,10.0,-100.00,WNW,294,9.0,15.0,15,0.00,,,0.00,0.000000,,2013-10-07 10:43:00,
2013-10-07 03:53:00,57.0,10.0,-100.00,WNW,294,9.0,15.0,15,0.00,,,0.00,0.000000,,2013-10-07 10:53:00,
2013-10-07 04:00:00,54.0,6.0,-100.00,WNW,288,8.0,14.0,14,0.00,,,0.00,0.000000,,2013-10-07 11:00:00,
2013-10-07 04:42:00,54.0,6.0,-100.00,WNW,288,8.0,14.0,14,0.00,,,0.00,0.000000,,2013-10-07 11:42:00,
2013-10-07 04:52:00,54.0,6.0,-100.00,WNW,288,8.0,14.0,14,0.00,,,0.00,0.000000,,2013-10-07 11:52:00,
2013-10-07 05:00:00,54.0,6.0,-100.00,WNW,289,8.0,14.0,14,0.00,,,0.00,0.000000,,2013-10-07 12:00:00,
2013-10-07 05:22:00,54.0,6.0,-100.00,WNW,289,8.0,14.0,14,0.00,,,0.00,0.000000,,2013-10-07 12:22:00,
2013-10-07 05:32:00,54.0,6.0,-100.00,WNW,289,8.0,14.0,14,0.00,,,0.00,0.000000,,2013-10-07 12:32:00,
2013-10-07 05:43:00,54.0,6.0,-100.00,WNW,289,8.0,14.0,14,0.00,,,0.00,0.000000,,2013-10-07 12:43:00,
2013-10-07 05:52:00,54.0,6.0,-100.00,WNW,289,8.0,14.0,14,0.00,,,0.00,0.000000,,2013-10-07 12:52:00,
2013-10-07 06:00:00,55.0,7.0,-100.00,West,268,3.0,11.0,14,0.00,,,0.00,0.000000,,2013-10-07 13:00:00,
2013-10-07 06:42:00,55.0,7.0,-100.00,West,268,3.0,11.0,14,0.00,,,0.00,0.000000,,2013-10-07 13:42:00,
2013-10-07 06:52:00,55.0,7.0,-100.00,West,268,3.0,11.0,14,0.00,,,0.00,0.000000,,2013-10-07 13:52:00,
2013-10-07 07:00:00,54.0,6.0,-100.00,WNW,287,4.0,9.0,14,0.00,,,0.00,0.000000,,2013-10-07 14:00:00,
2013-10-07 07:22:00,54.0,6.0,-100.00,WNW,287,4.0,9.0,14,0.00,,,0.00,0.000000,,2013-10-07 14:22:00,
2013-10-07 07:32:00,54.0,6.0,-100.00,WNW,287,4.0,9.0,14,0.00,,,0.00,0.000000,,2013-10-07 14:32:00,
2013-10-07 07:42:00,54.0,6.0,-100.00,WNW,287,4.0,9.0,14,0.00,,,0.00,0.000000,,2013-10-07 14:42:00,
2013-10-07 07:52:00,54.0,6.0,-100.00,WNW,287,4.0,9.0,14,0.00,,,0.00,0.000000,,2013-10-07 14:52:00,
2013-10-07 08:00:00,54.0,6.0,-100.00,WNW,286,7.0,11.0,14,0.00,,,0.00,0.000000,,2013-10-07 15:00:00,
2013-10-07 08:22:00,54.0,6.0,-100.00,WNW,286,7.0,11.0,14,0.00,,,0.00,0.000000,,2013-10-07 15:22:00,
2013-10-07 08:33:00,54.0,6.0,-100.00,WNW,286,7.0,11.0,14,0.00,,,0.00,0.000000,,2013-10-07 15:33:00,
2013-10-07 08:43:00,54.0,6.0,-100.00,WNW,286,7.0,11.0,14,0.00,,,0.00,0.000000,,2013-10-07 15:43:00,
2013-10-07 08:53:00,54.0,6.0,-100.00,WNW,286,7.0,11.0,14,0.00,,,0.00,0.000000,,2013-10-07 15:53:00,
2013-10-07 09:00:00,58.0,6.0,-100.00,WNW,296,0.0,10.0,12,0.00,,,0.00,99.000000,,2013-10-07 16:00:00,
2013-10-07 09:43:00,58.0,6.0,-100.00,WNW,296,0.0,10.0,12,0.00,,,0.00,99.000000,,2013-10-07 16:43:00,
2013-10-07 09:53:00,58.0,6.0,-100.00,WNW,296,0.0,10.0,12,0.00,,,0.00,99.000000,,2013-10-07 16:53:00,
2013-10-07 10:00:00,61.0,8.0,-100.00,East,91,0.0,4.0,12,0.00,,,0.00,242.000000,,2013-10-07 17:00:00,
2013-10-07 10:42:00,61.0,8.0,-100.00,East,91,0.0,4.0,12,0.00,,,0.00,242.000000,,2013-10-07 17:42:00,
2013-10-07 10:52:00,61.0,8.0,-100.00,East,91,0.0,4.0,12,0.00,,,0.00,242.000000,,2013-10-07 17:52:00,
2013-10-07 11:00:00,67.0,6.0,-100.00,ESE,102,3.0,7.0,9,0.00,,,0.00,376.000000,,2013-10-07 18:00:00,
2013-10-07 11:22:00,67.0,6.0,-100.00,ESE,102,3.0,7.0,9,0.00,,,0.00,376.000000,,2013-10-07 18:22:00,
2013-10-07 11:32:00,67.0,6.0,-100.00,ESE,102,3.0,7.0,9,0.00,,,0.00,376.000000,,2013-10-07 18:32:00,
2013-10-07 11:42:00,67.0,6.0,-100.00,ESE,102,3.0,7.0,9,0.00,,,0.00,376.000000,,2013-10-07 18:42:00,
2013-10-07 11:52:00,67.0,6.0,-100.00,ESE,102,3.0,7.0,9,0.00,,,0.00,376.000000,,2013-10-07 18:52:00,
2013-10-07 12:00:00,67.0,4.0,-100.00,ESE,121,1.0,8.0,8,0.00,,,0.00,475.000000,,2013-10-07 19:00:00,
2013-10-07 12:22:00,67.0,4.0,-100.00,ESE,121,1.0,8.0,8,0.00,,,0.00,475.000000,,2013-10-07 19:22:00,
2013-10-07 12:32:00,67.0,4.0,-100.00,ESE,121,1.0,8.0,8,0.00,,,0.00,475.000000,,2013-10-07 19:32:00,
2013-10-07 12:42:00,67.0,4.0,-100.00,ESE,121,1.0,8.0,8,0.00,,,0.00,475.000000,,2013-10-07 19:42:00,
2013-10-07 12:52:00,67.0,4.0,-100.00,ESE,121,1.0,8.0,8,0.00,,,0.00,475.000000,,2013-10-07 19:52:00,
2013-10-07 13:00:00,70.0,3.0,-100.00,SE,137,0.0,8.0,7,0.00,,,0.00,719.000000,,2013-10-07 20:00:00,
2013-10-07 13:43:00,70.0,3.0,-100.00,SE,137,0.0,8.0,7,0.00,,,0.00,719.000000,,2013-10-07 20:43:00,
2013-10-07 13:52:00,70.0,3.0,-100.00,SE,137,0.0,8.0,7,0.00,,,0.00,719.000000,,2013-10-07 20:52:00,
2013-10-07 14:00:00,77.0,5.0,-100.00,ESE,108,5.0,9.0,6,0.00,,,0.00,952.000000,,2013-10-07 21:00:00,
2013-10-07 14:43:00,77.0,5.0,-100.00,ESE,108,5.0,9.0,6,0.00,,,0.00,952.000000,,2013-10-07 21:43:00,
2013-10-07 14:55:00,77.0,5.0,-100.00,ESE,108,5.0,9.0,6,0.00,,,0.00,952.000000,,2013-10-07 21:55:00,
2013-10-07 15:00:00,77.0,8.0,-100.00,WNW,301,6.0,11.0,7,0.00,,,0.00,744.000000,,2013-10-07 22:00:00,
2013-10-07 15:24:00,77.0,8.0,-100.00,WNW,301,6.0,11.0,7,0.00,,,0.00,744.000000,,2013-10-07 22:24:00,
2013-10-07 15:33:00,77.0,8.0,-100.00,WNW,301,6.0,11.0,7,0.00,,,0.00,744.000000,,2013-10-07 22:33:00,
2013-10-07 15:43:00,77.0,8.0,-100.00,WNW,301,6.0,11.0,7,0.00,,,0.00,744.000000,,2013-10-07 22:43:00,
2013-10-07 15:53:00,77.0,8.0,-100.00,WNW,301,6.0,11.0,7,0.00,,,0.00,744.000000,,2013-10-07 22:53:00,
2013-10-07 16:00:00,80.0,3.0,-100.00,WSW,258,8.0,19.0,5,0.00,,,0.00,981.000000,,2013-10-07 23:00:00,
2013-10-07 16:22:00,80.0,3.0,-100.00,WSW,258,8.0,19.0,5,0.00,,,0.00,981.000000,,2013-10-07 23:22:00,
2013-10-07 16:33:00,80.0,3.0,-100.00,WSW,258,8.0,19.0,5,0.00,,,0.00,981.000000,,2013-10-07 23:33:00,
2013-10-07 16:42:00,80.0,3.0,-100.00,WSW,258,8.0,19.0,5,0.00,,,0.00,981.000000,,2013-10-07 23:42:00,
2013-10-07 16:52:00,80.0,3.0,-100.00,WSW,258,8.0,19.0,5,0.00,,,0.00,981.000000,,2013-10-07 23:52:00,
2013-10-07 17:00:00,78.0,6.0,-100.00,WNW,283,8.0,18.0,6,0.00,,,0.00,762.000000,,2013-10-08 00:00:00,
2013-10-07 17:22:00,78.0,6.0,-100.00,WNW,283,8.0,18.0,6,0.00,,,0.00,762.000000,,2013-10-08 00:22:00,
2013-10-07 17:32:00,78.0,6.0,-100.00,WNW,283,8.0,18.0,6,0.00,,,0.00,762.000000,,2013-10-08 00:32:00,
2013-10-07 17:42:00,78.0,6.0,-100.00,WNW,283,8.0,18.0,6,0.00,,,0.00,762.000000,,2013-10-08 00:42:00,
2013-10-07 17:52:00,78.0,6.0,-100.00,WNW,283,8.0,18.0,6,0.00,,,0.00,762.000000,,2013-10-08 00:52:00,
2013-10-07 18:00:00,78.0,6.0,-100.00,West,274,7.0,14.0,6,0.00,,,0.00,517.000000,,2013-10-08 01:00:00,
2013-10-07 18:42:00,78.0,6.0,-100.00,West,274,7.0,14.0,6,0.00,,,0.00,517.000000,,2013-10-08 01:42:00,
2013-10-07 18:52:00,78.0,6.0,-100.00,West,274,7.0,14.0,6,0.00,,,0.00,517.000000,,2013-10-08 01:52:00,
2013-10-07 19:22:00,69.0,5.0,-100.00,WNW,282,5.0,12.0,8,0.00,,,0.00,198.000000,,2013-10-08 02:22:00,
2013-10-07 19:32:00,69.0,5.0,-100.00,WNW,282,5.0,12.0,8,0.00,,,0.00,198.000000,,2013-10-08 02:32:00,
2013-10-07 20:00:00,63.0,15.0,-100.00,WNW,294,8.0,13.0,15,0.00,,,0.00,5.000000,,2013-10-08 03:00:00,
2013-10-07 20:22:00,63.0,15.0,-100.00,WNW,294,8.0,13.0,15,0.00,,,0.00,5.000000,,2013-10-08 03:22:00,
2013-10-07 20:34:00,63.0,15.0,-100.00,WNW,294,8.0,13.0,15,0.00,,,0.00,5.000000,,2013-10-08 03:34:00,
2013-10-07 20:44:00,63.0,15.0,-100.00,WNW,294,8.0,13.0,15,0.00,,,0.00,5.000000,,2013-10-08 03:44:00,
2013-10-07 20:55:00,63.0,15.0,-100.00,WNW,294,8.0,13.0,15,0.00,,,0.00,5.000000,,2013-10-08 03:55:00,
2013-10-07 21:00:00,60.0,12.0,-100.00,WNW,285,7.0,13.0,15,0.00,,,0.00,0.000000,,2013-10-08 04:00:00,
2013-10-07 21:23:00,60.0,12.0,-100.00,WNW,285,7.0,13.0,15,0.00,,,0.00,0.000000,,2013-10-08 04:23:00,
2013-10-07 21:34:00,60.0,12.0,-100.00,WNW,285,7.0,13.0,15,0.00,,,0.00,0.000000,,2013-10-08 04:34:00,
2013-10-07 21:43:00,60.0,12.0,-100.00,WNW,285,7.0,13.0,15,0.00,,,0.00,0.000000,,2013-10-08 04:43:00,
2013-10-07 21:53:00,60.0,12.0,-100.00,WNW,285,7.0,13.0,15,0.00,,,0.00,0.000000,,2013-10-08 04:53:00,
2013-10-07 22:00:00,60.0,7.0,-100.00,WNW,301,5.0,12.0,12,0.00,,,0.00,0.000000,,2013-10-08 05:00:00,
2013-10-07 22:22:00,60.0,7.0,-100.00,WNW,301,5.0,12.0,12,0.00,,,0.00,0.000000,,2013-10-08 05:22:00,
2013-10-07 22:34:00,60.0,7.0,-100.00,WNW,301,5.0,12.0,12,0.00,,,0.00,0.000000,,2013-10-08 05:34:00,
2013-10-07 22:42:00,60.0,7.0,-100.00,WNW,301,5.0,12.0,12,0.00,,,0.00,0.000000,,2013-10-08 05:42:00,
2013-10-07 22:53:00,60.0,7.0,-100.00,WNW,301,5.0,12.0,12,0.00,,,0.00,0.000000,,2013-10-08 05:53:00,
2013-10-07 23:00:00,59.0,6.0,-100.00,WNW,292,8.0,12.0,12,0.00,,,-99.99,0.000000,,2013-10-08 06:00:00,
2013-10-07 23:42:00,59.0,6.0,-100.00,WNW,292,8.0,12.0,12,0.00,,,-99.99,0.000000,,2013-10-08 06:42:00,
2013-10-07 23:52:00,59.0,6.0,-100.00,WNW,292,8.0,12.0,12,0.00,,,-99.99,0.000000,,2013-10-08 06:52:00,